• In Germany
  • List of Countries
  • For 7 days
  • Water Temperature
  • Satellite Maps
  • Weather Map
  • Weather Widgets
  • user-avatar
    Login

    Hourly Weather Artashat

    Today, 21 July, Friday

    Time Temperature Precipitation Wind Pressure Humidity
    00:00 +19°C° 0 mm 2 mps 603 mmHg 44%
    01:00 +19°C° 0 mm 2 mps 603 mmHg 47%
    02:00 +18°C° 0 mm 2 mps 602 mmHg 49%
    03:00 +18°C° 0 mm 2 mps 602 mmHg 53%
    04:00 +19°C° 0 mm 2 mps 602 mmHg 53%
    05:00 +19°C° 0 mm 2 mps 603 mmHg 53%
    06:00 +20°C° 0 mm 1 mps 603 mmHg 53%
    07:00 +21°C° 0 mm 2 mps 604 mmHg 46%
    08:00 +24°C° 0 mm 2 mps 604 mmHg 38%
    09:00 +26°C° 0 mm 2 mps 605 mmHg 30%
    10:00 +27°C° 0 mm 2 mps 605 mmHg 27%
    11:00 +29°C° 0 mm 2 mps 606 mmHg 24%
    12:00 +30°C° 0 mm 3 mps 606 mmHg 20%
    13:00 +31°C° 0 mm 3 mps 606 mmHg 19%
    14:00 +33°C° 0 mm 3 mps 606 mmHg 17%
    15:00 +33°C° 0 mm 3 mps 606 mmHg 15%
    16:00 +33°C° 0 mm 3 mps 606 mmHg 16%
    17:00 +31°C° 0 mm 3 mps 606 mmHg 16%
    18:00 +31°C° 0 mm 3 mps 605 mmHg 17%
    19:00 +28°C° 0 mm 2 mps 605 mmHg 22%
    20:00 +26°C° 0 mm 2 mps 604 mmHg 28%
    21:00 +23°C° 0 mm 2 mps 604 mmHg 33%
    22:00 +22°C° 0 mm 1 mps 604 mmHg 35%
    23:00 +21°C° 0 mm 1 mps 604 mmHg 37%

    Tomorrow, 22 July, Saturday

    Time Temperature Precipitation Wind Pressure Humidity
    00:00 +21°C° 0 mm 1 mps 604 mmHg 40%
    01:00 +20°C° 0 mm 1 mps 603 mmHg 41%
    02:00 +19°C° 0 mm 1 mps 603 mmHg 43%
    03:00 +19°C° 0 mm 1 mps 603 mmHg 45%
    04:00 +19°C° 0 mm 1 mps 604 mmHg 44%
    05:00 +19°C° 0 mm 1 mps 604 mmHg 43%
    06:00 +20°C° 0 mm 1 mps 604 mmHg 43%
    07:00 +22°C° 0 mm 1 mps 605 mmHg 36%
    08:00 +24°C° 0 mm 2 mps 606 mmHg 30%
    09:00 +26°C° 0 mm 2 mps 606 mmHg 24%
    10:00 +28°C° 0 mm 2 mps 607 mmHg 21%
    11:00 +29°C° 0 mm 2 mps 607 mmHg 19%
    12:00 +31°C° 0 mm 2 mps 607 mmHg 16%
    13:00 +31°C° 0 mm 3 mps 607 mmHg 15%
    14:00 +33°C° 0 mm 3 mps 607 mmHg 14%
    15:00 +34°C° 0 mm 3 mps 607 mmHg 12%
    16:00 +33°C° 0 mm 3 mps 607 mmHg 13%
    17:00 +33°C° 0 mm 3 mps 606 mmHg 14%
    18:00 +31°C° 0 mm 3 mps 606 mmHg 15%
    19:00 +29°C° 0 mm 3 mps 605 mmHg 19%
    20:00 +26°C° 0 mm 2 mps 605 mmHg 23%
    21:00 +24°C° 0 mm 2 mps 604 mmHg 27%
    22:00 +23°C° 0 mm 2 mps 604 mmHg 28%
    23:00 +21°C° 0 mm 2 mps 604 mmHg 29%

    Day after tomorrow, 23 July, Sunday

    Time Temperature Precipitation Wind Pressure Humidity
    00:00 +20°C° 0 mm 2 mps 604 mmHg 30%
    01:00 +21°C° 0 mm 1 mps 603 mmHg 31%
    02:00 +20°C° 0 mm 1 mps 603 mmHg 33%
    03:00 +19°C° 0 mm 1 mps 603 mmHg 34%
    04:00 +20°C° 0 mm 1 mps 603 mmHg 35%
    05:00 +20°C° 0 mm 1 mps 603 mmHg 35%
    06:00 +21°C° 0 mm 1 mps 603 mmHg 35%
    07:00 +23°C° 0 mm 1 mps 604 mmHg 31%
    08:00 +25°C° 0 mm 2 mps 604 mmHg 26%
    09:00 +27°C° 0 mm 2 mps 605 mmHg 22%
    10:00 +28°C° 0 mm 2 mps 605 mmHg 20%
    11:00 +30°C° 0 mm 3 mps 605 mmHg 17%
    12:00 +31°C° 0 mm 3 mps 605 mmHg 15%
    13:00 +33°C° 0 mm 3 mps 605 mmHg 14%
    14:00 +34°C° 0 mm 3 mps 605 mmHg 13%
    15:00 +34°C° 0 mm 3 mps 605 mmHg 12%
    16:00 +34°C° 0 mm 3 mps 604 mmHg 13%
    17:00 +33°C° 0 mm 3 mps 604 mmHg 14%
    18:00 +31°C° 0 mm 3 mps 604 mmHg 15%
    19:00 +29°C° 0 mm 3 mps 603 mmHg 20%
    20:00 +26°C° 0 mm 3 mps 603 mmHg 24%
    21:00 +24°C° 0 mm 2 mps 603 mmHg 29%
    22:00 +23°C° 0 mm 2 mps 603 mmHg 32%
    23:00 +21°C° 0 mm 2 mps 602 mmHg 35%

    24 July, Monday

    Time Temperature Precipitation Wind Pressure Humidity
    00:00 +19°C° 0 mm 2 mps 602 mmHg 39%
    01:00 +19°C° 0 mm 2 mps 602 mmHg 41%
    02:00 +18°C° 0 mm 2 mps 602 mmHg 43%
    03:00 +17°C° 0 mm 2 mps 601 mmHg 46%
    04:00 +17°C° 0 mm 2 mps 602 mmHg 46%
    05:00 +18°C° 0 mm 2 mps 602 mmHg 46%
    06:00 +19°C° 0 mm 1 mps 602 mmHg 46%
    07:00 +20°C° 0 mm 2 mps 603 mmHg 40%
    08:00 +23°C° 0 mm 2 mps 603 mmHg 33%
    09:00 +25°C° 0 mm 2 mps 604 mmHg 27%
    10:00 +26°C° 0 mm 2 mps 604 mmHg 24%
    11:00 +28°C° 0 mm 2 mps 604 mmHg 21%
    12:00 +29°C° 0 mm 2 mps 604 mmHg 18%
    13:00 +30°C° 0 mm 3 mps 604 mmHg 17%
    14:00 +31°C° 0 mm 3 mps 604 mmHg 15%
    15:00 +31°C° 0 mm 3 mps 604 mmHg 14%
    16:00 +31°C° 0 mm 3 mps 604 mmHg 15%
    17:00 +30°C° 0 mm 3 mps 604 mmHg 16%
    18:00 +30°C° 0 mm 3 mps 603 mmHg 17%
    19:00 +27°C° 0 mm 2 mps 603 mmHg 22%
    20:00 +25°C° 0 mm 2 mps 603 mmHg 27%
    21:00 +21°C° 0 mm 2 mps 602 mmHg 32%
    22:00 +22°C° 0 mm 1 mps 602 mmHg 35%
    23:00 +21°C° 0 mm 1 mps 602 mmHg 38%

    25 July, Tuesday

    Time Temperature Precipitation Wind Pressure Humidity
    00:00 +20°C° 0 mm 1 mps 602 mmHg 40%
    01:00 +20°C° 0 mm 1 mps 601 mmHg 41%
    02:00 +19°C° 0 mm 1 mps 601 mmHg 43%
    03:00 +18°C° 0 mm 1 mps 601 mmHg 44%
    04:00 +19°C° 0 mm 1 mps 601 mmHg 44%
    05:00 +19°C° 0 mm 1 mps 602 mmHg 43%
    06:00 +20°C° 0 mm 1 mps 602 mmHg 43%
    07:00 +22°C° 0 mm 1 mps 603 mmHg 37%
    08:00 +24°C° 0 mm 2 mps 603 mmHg 31%
    09:00 +26°C° 0 mm 2 mps 604 mmHg 25%
    10:00 +27°C° 0 mm 2 mps 604 mmHg 22%
    11:00 +29°C° 0 mm 2 mps 604 mmHg 19%
    12:00 +30°C° 0 mm 3 mps 604 mmHg 15%
    13:00 +31°C° 0 mm 3 mps 604 mmHg 14%
    14:00 +31°C° 0 mm 3 mps 604 mmHg 13%
    15:00 +33°C° 0 mm 3 mps 604 mmHg 12%
    16:00 +31°C° 0 mm 3 mps 604 mmHg 12%
    17:00 +31°C° 0 mm 3 mps 603 mmHg 13%
    18:00 +30°C° 0 mm 3 mps 603 mmHg 13%
    19:00 +28°C° 0 mm 3 mps 603 mmHg 16%
    20:00 +25°C° 0 mm 2 mps 603 mmHg 19%
    21:00 +23°C° 0 mm 2 mps 602 mmHg 22%
    22:00 +21°C° 0 mm 2 mps 602 mmHg 23%
    23:00 +20°C° 0 mm 2 mps 602 mmHg 25%

    26 July, Wednesday

    Time Temperature Precipitation Wind Pressure Humidity
    00:00 +20°C° 0 mm 2 mps 602 mmHg 26%
    01:00 +19°C° 0 mm 2 mps 602 mmHg 28%
    02:00 +18°C° 0 mm 2 mps 601 mmHg 29%
    03:00 +19°C° 0 mm 1 mps 601 mmHg 30%
    04:00 +19°C° 0 mm 1 mps 601 mmHg 32%
    05:00 +19°C° 0 mm 1 mps 602 mmHg 33%
    06:00 +20°C° 0 mm 1 mps 602 mmHg 34%
    07:00 +22°C° 0 mm 1 mps 603 mmHg 30%
    08:00 +24°C° 0 mm 1 mps 604 mmHg 25%
    09:00 +26°C° 0 mm 1 mps 604 mmHg 20%
    10:00 +27°C° 0 mm 1 mps 605 mmHg 19%
    11:00 +29°C° 0 mm 2 mps 605 mmHg 17%
    12:00 +30°C° 0 mm 2 mps 605 mmHg 15%
    13:00 +31°C° 0 mm 2 mps 605 mmHg 14%
    14:00 +31°C° 0 mm 2 mps 605 mmHg 13%
    15:00 +33°C° 0 mm 3 mps 605 mmHg 12%
    16:00 +31°C° 0 mm 2 mps 605 mmHg 13%
    17:00 +31°C° 0 mm 2 mps 605 mmHg 13%
    18:00 +30°C° 0 mm 2 mps 605 mmHg 14%
    19:00 +28°C° 0 mm 2 mps 604 mmHg 17%
    20:00 +25°C° 0 mm 2 mps 604 mmHg 21%
    21:00 +23°C° 0 mm 1 mps 603 mmHg 25%
    22:00 +22°C° 0 mm 1 mps 603 mmHg 27%
    23:00 +21°C° 0 mm 1 mps 603 mmHg 30%
    Show more